KB4JHU-15 Weather Reports


time (UTC)temp
C
wind
direction
speed
KPH
gust
KPH
rain 1hr
cm
rain 24hr
cm
rain mn
cm
humidity
%
barometer
mb
20260505160643 22 53 1.6 3.2 0.00 0.00 0.00 57
20260505150641 20 264 3.2 3.2 0.00 0.00 0.00 63
20260505140639 19 269 3.2 3.2 0.00 0.00 0.00 68
20260505123636 13 360 0.0 0.0 0.00 0.00 0.00 88
20260505120635 11 360 0.0 0.0 0.00 0.00 0.00 92
20260505113634 11 360 0.0 0.0 0.00 0.00 0.00 93
20260505110633 11 360 0.0 0.0 0.00 0.00 0.00 95
20260505100631 10 360 0.0 0.0 0.00 0.00 0.00 92
20260505093630 11 360 0.0 0.0 0.00 0.00 0.00 90
20260505090629 11 360 0.0 0.0 0.00 0.00 0.00 89
20260505083628 12 360 0.0 0.0 0.00 0.00 0.00 87
20260505080627 12 360 0.0 0.0 0.00 0.00 0.00 86
20260505073626 13 360 0.0 0.0 0.00 0.00 0.00 86
20260505070625 13 360 0.0 0.0 0.00 0.00 0.00 82
20260505063624 13 360 0.0 0.0 0.00 0.00 0.00 80
20260505060623 14 360 0.0 0.0 0.00 0.00 0.00 78
20260505053622 15 360 0.0 0.0 0.00 0.00 0.00 78
20260505050621 15 360 0.0 0.0 0.00 0.00 0.00 74
20260505040619 16 360 0.0 0.0 0.00 0.00 0.00 71
20260505033618 16 360 0.0 0.0 0.00 0.00 0.00 68
20260505030617 17 360 0.0 0.0 0.00 0.00 0.00 66
20260505023616 17 360 0.0 0.0 0.00 0.00 0.00 63
20260505020615 18 360 0.0 0.0 0.00 0.00 0.00 62
20260505013614 20 360 0.0 0.0 0.00 0.00 0.00 57
20260505010613 21 360 0.0 0.0 0.00 0.00 0.00 52
20260505003612 22 360 0.0 0.0 0.00 0.00 0.00 46
20260505000611 23 312 1.6 3.2 0.00 0.00 0.00 44
20260504233610 24 271 3.2 3.2 0.00 0.00 0.00 43
20260504230609 25 302 3.2 3.2 0.00 0.00 0.00 44
20260504223608 25 284 3.2 6.4 0.00 0.00 0.00 42
20260504220607 25 285 6.4 6.4 0.00 0.00 0.00 41
20260504213606 25 285 4.8 4.8 0.00 0.00 0.00 42
20260504210605 25 281 9.7 9.7 0.00 0.00 0.00 42
20260504203604 25 294 4.8 6.4 0.00 0.00 0.00 44
20260504200603 25 267 8.0 8.0 0.00 0.00 0.00 43
20260504193602 25 276 6.4 8.0 0.00 0.00 0.00 45
20260504190601 25 304 4.8 6.4 0.00 0.00 0.00 48
20260504183600 23 257 6.4 9.7 0.00 0.00 0.00 49
20260504180559 23 288 9.7 9.7 0.00 0.00 0.00 48
20260504173558 23 250 8.0 8.0 0.00 0.00 0.00 48
20260504170557 22 267 8.0 8.0 0.00 0.00 0.00 49